| time (UTC) | temp F | wind direction | speed knots | gust knots | rain 1hr in | rain 24hr in | rain mn in | humidity % | barometer mb |
| 20260503194040 | 66 | 268 | 10.4 | 18.2 | 0.00 | 0.01 | 0.00 | 100 | |
| 20260503193540 | 67 | 270 | 7.0 | 12.2 | 0.00 | 0.01 | 0.00 | 100 | |
| 20260503193040 | 66 | 223 | 3.5 | 12.2 | 0.00 | 0.01 | 0.00 | 100 | |
| 20260503192540 | 66 | 237 | 2.6 | 10.4 | 0.00 | 0.01 | 0.00 | 100 | |
| 20260503192040 | 65 | 244 | 4.3 | 14.8 | 0.00 | 0.01 | 0.00 | 100 | |
| 20260503191540 | 66 | 239 | 5.2 | 17.4 | 0.00 | 0.01 | 0.00 | 100 | |
| 20260503191040 | 67 | 250 | 6.1 | 18.2 | 0.00 | 0.01 | 0.00 | 100 | |
| 20260503190540 | 66 | 306 | 5.2 | 13.9 | 0.00 | 0.01 | 0.00 | 100 | |
| 20260503190040 | 68 | 241 | 4.3 | 14.8 | 0.00 | 0.01 | 0.00 | 100 | |
| 20260503185540 | 67 | 282 | 4.3 | 15.6 | 0.00 | 0.01 | 0.00 | 100 | |
| 20260503185040 | 65 | 267 | 2.6 | 20.9 | 0.00 | 0.01 | 0.00 | 100 | |
| 20260503184540 | 66 | 278 | 6.1 | 19.1 | 0.00 | 0.01 | 0.00 | 100 | |
| 20260503184040 | 67 | 223 | 3.5 | 16.5 | 0.00 | 0.01 | 0.00 | 100 | |
| 20260503183540 | 67 | 281 | 1.7 | 13.9 | 0.00 | 0.01 | 0.00 | 100 | |
| 20260503183040 | 65 | 255 | 12.2 | 15.6 | 0.01 | 0.01 | 0.00 | 100 | |
| 20260503182540 | 64 | 272 | 7.0 | 15.6 | 0.01 | 0.01 | 0.00 | 100 | |
| 20260503182040 | 64 | 240 | 3.5 | 14.8 | 0.01 | 0.01 | 0.00 | 100 | |
| 20260503181540 | 64 | 102 | 0.9 | 16.5 | 0.01 | 0.01 | 0.00 | 100 | |
| 20260503181040 | 65 | 282 | 3.5 | 13.9 | 0.01 | 0.01 | 0.00 | 100 | |
| 20260503180540 | 65 | 262 | 8.7 | 10.4 | 0.01 | 0.01 | 0.00 | 100 | |
| 20260503180040 | 66 | 312 | 5.2 | 14.8 | 0.01 | 0.01 | 0.01 | 100 | |
| 20260503175540 | 66 | 320 | 1.7 | 13.0 | 0.01 | 0.01 | 0.01 | 100 | |
| 20260503175040 | 67 | 270 | 3.5 | 14.8 | 0.01 | 0.01 | 0.01 | 100 | |
| 20260503174540 | 69 | 225 | 8.7 | 14.8 | 0.01 | 0.01 | 0.01 | 100 | |
| 20260503174040 | 68 | 258 | 7.8 | 20.9 | 0.01 | 0.01 | 0.01 | 100 | |
| 20260503173540 | 68 | 232 | 4.3 | 12.2 | 0.01 | 0.01 | 0.01 | 100 | |
| 20260503173040 | 67 | 260 | 6.1 | 16.5 | 0.00 | 0.00 | 0.00 | 100 | |
| 20260503172540 | 67 | 250 | 12.2 | 20.9 | 0.00 | 0.00 | 0.00 | 100 | |
| 20260503172040 | 69 | 278 | 2.6 | 19.1 | 0.00 | 0.00 | 0.00 | 100 | |
| 20260503171540 | 67 | 243 | 6.1 | 13.9 | 0.00 | 0.00 | 0.00 | 100 | |
| 20260503171040 | 68 | 270 | 7.8 | 18.2 | 0.00 | 0.00 | 0.00 | 100 | |
| 20260503170540 | 67 | 254 | 7.8 | 13.9 | 0.00 | 0.00 | 0.00 | 100 | |
| 20260503150540 | 62 | 275 | 6.1 | 10.4 | 0.00 | 0.00 | 0.00 | 100 | |
| 20260503131041 | 58 | 267 | 7.0 | 13.9 | 0.00 | 0.00 | 0.00 | 100 | |
| 20260503130541 | 58 | 270 | 1.7 | 11.3 | 0.00 | 0.00 | 0.00 | 100 | |
| 20260503110541 | 38 | 168 | 0.0 | 0.0 | 0.00 | 0.00 | 0.00 | 100 | |
| 20260503081541 | 38 | 232 | 0.0 | 0.0 | 0.00 | 0.00 | 0.00 | 100 | |
| 20260503081041 | 38 | 232 | 0.0 | 0.0 | 0.00 | 0.00 | 0.00 | 100 | |
| 20260503080541 | 38 | 232 | 0.0 | 0.0 | 0.00 | 0.00 | 0.00 | 100 | |
| 20260503072541 | 38 | 261 | 0.0 | 1.7 | 0.00 | 0.00 | 0.00 | 100 | |
| 20260503072041 | 38 | 244 | 0.0 | 0.0 | 0.00 | 0.00 | 0.00 | 100 | |
| 20260503071541 | 38 | 244 | 0.0 | 2.6 | 0.00 | 0.00 | 0.00 | 100 | |
| 20260503071041 | 38 | 233 | 0.0 | 2.6 | 0.00 | 0.00 | 0.00 | 100 | |
| 20260503070541 | 38 | 248 | 0.0 | 1.7 | 0.00 | 0.00 | 0.00 | 100 | |
| 20260503055041 | 38 | 330 | 0.0 | 0.0 | 0.00 | 0.00 | 0.00 | 100 | |
| 20260503054541 | 39 | 330 | 0.0 | 0.0 | 0.00 | 0.00 | 0.00 | 100 | |
| 20260503054041 | 39 | 330 | 0.0 | 0.0 | 0.00 | 0.00 | 0.00 | 100 | |
| 20260503053541 | 39 | 330 | 0.0 | 0.0 | 0.00 | 0.00 | 0.00 | 100 | |
| 20260503053041 | 39 | 330 | 0.0 | 0.0 | 0.00 | 0.00 | 0.00 | 100 | |
| 20260503052544 | 39 | 330 | 0.0 | 0.0 | 0.00 | 0.00 | 0.00 | 100 | |
| 20260503052041 | 39 | 330 | 0.0 | 0.0 | 0.00 | 0.00 | 0.00 | 100 | |
| 20260503051541 | 39 | 330 | 0.0 | 0.0 | 0.00 | 0.00 | 0.00 | 100 | |
| 20260503051041 | 39 | 330 | 0.0 | 0.0 | 0.00 | 0.00 | 0.00 | 100 | |
| 20260503050541 | 39 | 330 | 0.0 | 0.0 | 0.00 | 0.00 | 0.00 | 100 | |
| 20260503050041 | 39 | 330 | 0.0 | 0.0 | 0.00 | 0.00 | 0.00 | 100 | |
| 20260503045542 | 39 | 330 | 0.0 | 0.0 | 0.00 | 0.00 | 0.00 | 100 | |
| 20260503045042 | 39 | 330 | 0.0 | 0.0 | 0.00 | 0.00 | 0.00 | 100 | |
| 20260503044542 | 39 | 330 | 0.0 | 0.0 | 0.00 | 0.00 | 0.00 | 100 | |
| 20260503044042 | 40 | 330 | 0.0 | 0.0 | 0.00 | 0.00 | 0.00 | 100 | |
| 20260503043542 | 40 | 330 | 0.0 | 0.0 | 0.00 | 0.00 | 0.00 | 100 | |
| 20260503043042 | 40 | 330 | 0.0 | 0.0 | 0.00 | 0.00 | 0.00 | 100 | |
| 20260503042542 | 40 | 330 | 0.0 | 0.0 | 0.00 | 0.00 | 0.00 | 100 | |
| 20260503042042 | 40 | 330 | 0.0 | 0.0 | 0.00 | 0.00 | 0.00 | 100 | |
| 20260503041542 | 41 | 330 | 0.0 | 0.0 | 0.00 | 0.00 | 0.00 | 100 | |
| 20260503041042 | 41 | 330 | 0.0 | 0.0 | 0.00 | 0.00 | 0.00 | 100 | |
| 20260503040542 | 40 | 330 | 0.0 | 0.0 | 0.00 | 0.00 | 0.00 | 100 | |
| 20260503040042 | 41 | 330 | 0.0 | 0.0 | 0.00 | 0.00 | 0.00 | 100 | |
| 20260503035542 | 41 | 330 | 0.0 | 0.0 | 0.00 | 0.00 | 0.00 | 100 | |
| 20260503035042 | 41 | 330 | 0.0 | 0.0 | 0.00 | 0.00 | 0.00 | 100 | |
| 20260503034542 | 41 | 330 | 0.0 | 0.0 | 0.00 | 0.00 | 0.00 | 100 | |
| 20260503034042 | 41 | 330 | 0.0 | 0.0 | 0.00 | 0.00 | 0.00 | 100 | |
| 20260503033542 | 41 | 330 | 0.0 | 0.0 | 0.00 | 0.00 | 0.00 | 100 | |
| 20260503033042 | 41 | 330 | 0.0 | 0.0 | 0.00 | 0.00 | 0.00 | 100 | |
| 20260503032542 | 41 | 330 | 0.0 | 0.0 | 0.00 | 0.00 | 0.00 | 100 | |
| 20260503032042 | 41 | 330 | 0.0 | 0.0 | 0.00 | 0.00 | 0.00 | 100 | |
| 20260503031542 | 41 | 330 | 0.0 | 0.0 | 0.00 | 0.00 | 0.00 | 100 | |
| 20260503031042 | 41 | 330 | 0.0 | 0.0 | 0.00 | 0.00 | 0.00 | 100 | |
| 20260503030542 | 41 | 330 | 0.0 | 0.0 | 0.00 | 0.00 | 0.00 | 100 | |
| 20260503030042 | 41 | 330 | 0.0 | 0.0 | 0.00 | 0.00 | 0.00 | 100 | |
| 20260503025542 | 41 | 330 | 0.0 | 0.0 | 0.00 | 0.00 | 0.00 | 100 | |
| 20260503025042 | 41 | 330 | 0.0 | 0.0 | 0.00 | 0.00 | 0.00 | 100 | |
| 20260503024542 | 41 | 330 | 0.0 | 0.0 | 0.00 | 0.00 | 0.00 | 100 | |
| 20260503024042 | 41 | 330 | 0.0 | 0.0 | 0.00 | 0.00 | 0.00 | 100 | |
| 20260503023542 | 41 | 330 | 0.0 | 0.0 | 0.00 | 0.00 | 0.00 | 100 | |
| 20260503023042 | 42 | 330 | 0.0 | 0.0 | 0.00 | 0.00 | 0.00 | 100 | |
| 20260503022542 | 41 | 330 | 0.0 | 0.0 | 0.00 | 0.00 | 0.00 | 100 | |
| 20260503022042 | 42 | 330 | 0.0 | 0.0 | 0.00 | 0.00 | 0.00 | 100 | |
| 20260503021542 | 42 | 330 | 0.0 | 0.0 | 0.00 | 0.00 | 0.00 | 100 | |
| 20260503021042 | 42 | 330 | 0.0 | 0.0 | 0.00 | 0.00 | 0.00 | 100 | |
| 20260503020542 | 42 | 330 | 0.0 | 0.0 | 0.00 | 0.00 | 0.00 | 100 | |
| 20260503020042 | 42 | 330 | 0.0 | 0.0 | 0.00 | 0.00 | 0.00 | 100 | |
| 20260503015542 | 43 | 330 | 0.0 | 0.0 | 0.00 | 0.00 | 0.00 | 100 | |
| 20260503015042 | 43 | 330 | 0.0 | 0.0 | 0.00 | 0.00 | 0.00 | 100 | |
| 20260503014542 | 43 | 330 | 0.0 | 0.0 | 0.00 | 0.00 | 0.00 | 100 | |
| 20260503014042 | 43 | 330 | 0.0 | 0.0 | 0.00 | 0.00 | 0.00 | 100 | |
| 20260503013542 | 44 | 330 | 0.0 | 0.0 | 0.00 | 0.00 | 0.00 | 100 | |
| 20260503013042 | 44 | 330 | 0.0 | 0.0 | 0.00 | 0.00 | 0.00 | 100 | |
| 20260503012542 | 44 | 330 | 0.0 | 0.0 | 0.00 | 0.00 | 0.00 | 100 | |
| 20260503012042 | 44 | 330 | 0.0 | 0.0 | 0.00 | 0.00 | 0.00 | 100 | |
| 20260503011542 | 45 | 330 | 0.0 | 0.0 | 0.00 | 0.00 | 0.00 | 100 | |
| 20260503011042 | 45 | 330 | 0.0 | 0.0 | 0.00 | 0.00 | 0.00 | 100 | |
| 20260503010542 | 45 | 330 | 0.0 | 0.0 | 0.00 | 0.00 | 0.00 | 100 | |
| 20260503010042 | 45 | 330 | 0.0 | 0.0 | 0.00 | 0.00 | 0.00 | 100 | |
| 20260503005542 | 46 | 330 | 0.0 | 0.0 | 0.00 | 0.00 | 0.00 | 100 | |
| 20260503005042 | 46 | 330 | 0.0 | 0.0 | 0.00 | 0.00 | 0.00 | 100 | |
| 20260503004542 | 46 | 330 | 0.0 | 0.0 | 0.00 | 0.00 | 0.00 | 100 | |
| 20260503004042 | 47 | 330 | 0.0 | 0.0 | 0.00 | 0.00 | 0.00 | 100 | |
| 20260503003542 | 47 | 330 | 0.0 | 0.0 | 0.00 | 0.00 | 0.00 | 100 | |
| 20260503003042 | 48 | 330 | 0.0 | 0.0 | 0.00 | 0.00 | 0.00 | 100 | |
| 20260503002542 | 48 | 330 | 0.0 | 0.0 | 0.00 | 0.00 | 0.00 | 100 | |
| 20260503002042 | 48 | 330 | 0.0 | 0.0 | 0.00 | 0.00 | 0.00 | 100 | |
| 20260503001542 | 49 | 330 | 0.0 | 1.7 | 0.00 | 0.00 | 0.00 | 100 | |
| 20260503001042 | 48 | 277 | 0.0 | 0.0 | 0.00 | 0.00 | 0.00 | 100 | |
| 20260503000542 | 49 | 277 | 0.0 | 0.0 | 0.00 | 0.00 | 0.00 | 100 | |
| 20260503000042 | 49 | 277 | 0.0 | 0.0 | 0.00 | 0.00 | 0.00 | 100 | |
| 20260502235542 | 49 | 277 | 0.0 | 2.6 | 0.00 | 0.00 | 0.00 | 100 | |
| 20260502235042 | 49 | 291 | 0.0 | 0.0 | 0.00 | 0.00 | 0.00 | 100 | |
| 20260502234542 | 49 | 291 | 0.0 | 0.0 | 0.00 | 0.00 | 0.00 | 100 | |
| 20260502234042 | 49 | 291 | 0.0 | 0.0 | 0.00 | 0.00 | 0.00 | 100 | |
| 20260502233542 | 49 | 291 | 0.0 | 0.9 | 0.00 | 0.00 | 0.00 | 100 | |
| 20260502233042 | 49 | 338 | 0.0 | 0.0 | 0.00 | 0.00 | 0.00 | 100 | |
| 20260502232542 | 49 | 338 | 0.0 | 0.0 | 0.00 | 0.00 | 0.00 | 100 | |
| 20260502232042 | 49 | 338 | 0.0 | 2.6 | 0.00 | 0.00 | 0.00 | 100 | |
| 20260502231542 | 50 | 23 | 0.0 | 2.6 | 0.00 | 0.00 | 0.00 | 100 | |
| 20260502231042 | 50 | 307 | 0.0 | 0.0 | 0.00 | 0.00 | 0.00 | 100 | |
| 20260502230542 | 50 | 307 | 0.0 | 0.0 | 0.00 | 0.00 | 0.00 | 100 | |
| 20260502230042 | 50 | 307 | 0.0 | 0.9 | 0.00 | 0.00 | 0.00 | 100 | |
| 20260502225542 | 50 | 282 | 0.0 | 4.3 | 0.00 | 0.00 | 0.00 | 100 | |
| 20260502225042 | 50 | 312 | 0.0 | 2.6 | 0.00 | 0.00 | 0.00 | 100 | |
| 20260502224542 | 50 | 284 | 0.9 | 5.2 | 0.00 | 0.00 | 0.00 | 100 | |
| 20260502224042 | 50 | 215 | 0.0 | 3.5 | 0.00 | 0.00 | 0.00 | 100 | |
| 20260502223542 | 50 | 282 | 0.9 | 7.0 | 0.00 | 0.00 | 0.00 | 100 | |
| 20260502223042 | 50 | 234 | 0.0 | 6.1 | 0.00 | 0.00 | 0.00 | 100 | |
| 20260502222542 | 51 | 254 | 0.0 | 1.7 | 0.00 | 0.00 | 0.00 | 100 | |
| 20260502222042 | 50 | 309 | 1.7 | 6.1 | 0.00 | 0.00 | 0.00 | 100 | |
| 20260502221542 | 51 | 250 | 2.6 | 6.1 | 0.00 | 0.00 | 0.00 | 100 | |
| 20260502221042 | 51 | 298 | 1.7 | 6.1 | 0.00 | 0.00 | 0.00 | 100 | |
| 20260502220542 | 51 | 299 | 0.0 | 5.2 | 0.00 | 0.00 | 0.00 | 100 | |
| 20260502220042 | 51 | 310 | 0.9 | 7.0 | 0.00 | 0.00 | 0.00 | 100 | |
| 20260502215542 | 51 | 267 | 0.0 | 7.8 | 0.00 | 0.00 | 0.00 | 100 | |
| 20260502215042 | 50 | 298 | 1.7 | 8.7 | 0.00 | 0.00 | 0.00 | 100 | |
| 20260502214542 | 51 | 226 | 3.5 | 7.0 | 0.00 | 0.00 | 0.00 | 100 | |
| 20260502214042 | 52 | 275 | 0.0 | 1.7 | 0.00 | 0.00 | 0.00 | 100 | |
| 20260502213542 | 51 | 309 | 0.0 | 5.2 | 0.00 | 0.00 | 0.00 | 100 | |
| 20260502213042 | 50 | 12 | 0.0 | 1.7 | 0.00 | 0.00 | 0.00 | 100 | |
| 20260502212542 | 50 | 284 | 0.9 | 7.0 | 0.00 | 0.00 | 0.00 | 100 | |
| 20260502212042 | 51 | 291 | 0.0 | 3.5 | 0.00 | 0.00 | 0.00 | 100 | |
| 20260502211542 | 50 | 277 | 1.7 | 4.3 | 0.00 | 0.00 | 0.00 | 100 | |
| 20260502211042 | 50 | 315 | 0.0 | 6.1 | 0.00 | 0.00 | 0.00 | 100 | |
| 20260502210542 | 51 | 296 | 0.0 | 2.6 | 0.00 | 0.00 | 0.00 | 100 | |
| 20260502210042 | 51 | 296 | 0.0 | 5.2 | 0.00 | 0.00 | 0.00 | 100 | |
| 20260502205542 | 51 | 284 | 0.0 | 6.1 | 0.00 | 0.00 | 0.00 | 100 | |
| 20260502205042 | 50 | 33 | 1.7 | 4.3 | 0.00 | 0.00 | 0.00 | 100 | |
| 20260502204542 | 51 | 1 | 0.0 | 2.6 | 0.00 | 0.00 | 0.00 | 100 | |
| 20260502204042 | 52 | 270 | 0.0 | 6.1 | 0.00 | 0.00 | 0.00 | 100 | |
| 20260502203542 | 52 | 271 | 0.0 | 4.3 | 0.00 | 0.00 | 0.00 | 100 | |
| 20260502203042 | 52 | 293 | 1.7 | 5.2 | 0.00 | 0.00 | 0.00 | 100 | |
| 20260502202542 | 50 | 268 | 0.0 | 3.5 | 0.00 | 0.00 | 0.00 | 100 | |
| 20260502202043 | 52 | 274 | 0.0 | 0.0 | 0.00 | 0.00 | 0.00 | 100 | |
| 20260502201543 | 52 | 274 | 0.0 | 3.5 | 0.00 | 0.00 | 0.00 | 100 | |
| 20260502201043 | 52 | 288 | 0.0 | 6.1 | 0.00 | 0.00 | 0.00 | 100 | |
| 20260502200543 | 52 | 272 | 2.6 | 6.1 | 0.00 | 0.00 | 0.00 | 100 | |
| 20260502200043 | 52 | 270 | 4.3 | 7.0 | 0.00 | 0.00 | 0.00 | 100 | |
| 20260502195543 | 52 | 251 | 0.9 | 5.2 | 0.00 | 0.00 | 0.00 | 100 | |
| 20260502195043 | 52 | 265 | 0.0 | 8.7 | 0.00 | 0.00 | 0.00 | 100 | |
| 20260502194543 | 52 | 272 | 4.3 | 7.0 | 0.00 | 0.00 | 0.00 | 100 |